Weather observations for the past three days for
Bainbridge, Decatur County Industrial Air Park Airport
Imperial (Metric)
Date Time (edt) Wind (mph) Vis. (mi.) Weather Sky Cond. Temperature (ºF) Relative Humidity Wind Chill (°F) Heat Index (°F) Pressure Precipitation (in)
Air Dwpt 6 hour altimeter (in) sea level (mb) 1 hr 3 hr 6 hr
Max. Min.
25 13:35 W 9 10.00 Partly Cloudy SCT075 SCT120 97.5 73.2 46% 108 29.95 0.0
25 13:15 NW 9 10.00 Partly Cloudy SCT075 SCT120 96.3 71.1 44% 104 29.95 0.0
25 12:55 NW 8 10.00 Fair CLR 95.7 72.7 47% 105 29.96 0.0
25 12:35 SW 7 10.00 Fair CLR 93.9 74.7 54% 105 29.96 0.0
25 12:15 SW 3 10.00 Fair CLR 93.7 74.5 54% 105 29.96 0.0
25 11:55 W 7 10.00 Fair CLR 93.9 75.4 55% 106 29.96 0.0
25 11:35 W 6 10.00 Fair CLR 92.5 75.4 58% 104 29.96 0.0
25 11:15 SW 5 10.00 Fair CLR 90.9 76.6 63% 104 29.96 0.0
25 10:55 S 5 10.00 Fair CLR 89.6 76.3 65% 102 29.96 0.0
25 10:35 W 3 10.00 Fair CLR 87.8 76.3 69% 99 29.95 0.0
25 10:15 W 3 10.00 Fair CLR 86.4 75.9 71% 96 29.96 0.0
25 09:55 W 5 10.00 Fair CLR 85.6 76.1 73% 96 29.96 0.0
25 09:35 W 5 10.00 Fair CLR 84 76.1 77% 93 29.96 0.0
25 09:15 NW 6 10.00 Fair CLR 82.4 75.7 80% 90 29.96 0.0
25 08:55 W 5 10.00 Fair CLR 81.5 75.9 83% 88 29.96 0.0
25 08:35 W 5 10.00 Partly Cloudy SCT075 80.4 75.7 86% 86 29.96 0.0
25 08:15 SW 7 10.00 Partly Cloudy SCT075 78.6 75.4 90% 82 29.96 0.0
25 07:55 SW 6 10.00 Fair CLR 77.9 75.2 77.9 75.9 91% 80 29.95 0.0
25 07:35 W 5 7.00 Fair CLR 77 75 94% 78 29.94 0.0
25 07:15 W 5 10.00 Partly Cloudy SCT075 76.6 74.7 94% 77 29.94 0.0
25 06:55 W 6 10.00 Partly Cloudy SCT075 76.1 74.5 95% 76 29.93 0.0
25 06:35 SW 6 10.00 Partly Cloudy SCT075 75.9 74.3 95% 75 29.93 0.0
25 06:15 SW 6 10.00 Partly Cloudy SCT075 75.9 74.3 95% 75 29.93 0.0
25 05:55 SW 6 10.00 Fair CLR 76.1 74.5 95% 76 29.93 0.0
25 05:35 SW 5 10.00 Fair CLR 75.2 75.2 100% 73 29.92 0.0
25 05:15 W 6 10.00 Fair CLR 76.5 74.7 94% 77 29.92 0.0
25 04:55 W 6 10.00 Fair CLR 76.5 74.7 94% 77 29.92 0.0
25 04:35 SW 6 10.00 Fair CLR 76.6 74.8 94% 77 29.92 0.0
25 04:15 W 3 10.00 Fair CLR 76.8 75 94% 78 29.92 0.0
25 03:55 W 5 10.00 Fair CLR 77.2 75.4 94% 78 29.92 0.0
25 03:35 SW 5 10.00 Fair CLR 77.2 75.6 95% 78 29.92 0.0
25 03:15 SW 6 10.00 Fair CLR 77.4 75.7 95% 79 29.92 0.0
25 02:55 SW 5 10.00 Fair CLR 77.5 75.7 94% 79 29.92 0.0
25 02:35 SW 5 10.00 Fair CLR 77.7 75.9 94% 80 29.93 0.0
25 02:15 SW 5 10.00 Fair CLR 77.7 75.9 94% 80 29.93 0.0
25 01:55 SW 5 10.00 Fair CLR 77.7 75.7 85.6 77.7 94% 80 29.93 0.0
25 01:35 SW 5 10.00 Fair CLR 77.9 75.7 93% 80 29.93 0.0
25 01:15 SW 5 10.00 Fair CLR 77.9 75.6 93% 80 29.93 0.0
25 00:55 W 5 10.00 Fair CLR 78.4 75.9 92% 82 29.94 0.0
25 00:35 W 5 10.00 Fair CLR 78.6 75.9 91% 82 29.93 0.0
25 00:15 W 6 10.00 Fair CLR 78.4 75.6 91% 82 29.94 0.0
24 23:55 SW 6 10.00 Fair CLR 78.8 75.4 89% 82 29.94 0.0
24 23:35 SW 5 10.00 Fair CLR 79 75 88% 83 29.94 0.0
24 23:15 SW 5 10.00 Partly Cloudy SCT055 79.3 74.8 86% 83 29.94 0.0
24 22:55 W 5 10.00 Partly Cloudy SCT055 79.7 74.7 85% 84 29.94 0.0
24 22:35 SW 6 10.00 Partly Cloudy SCT060 79.9 74.3 83% 84 29.93 0.0
24 22:15 SW 5 10.00 Partly Cloudy SCT060 80.6 74.1 81% 86 29.92 0.0
24 21:55 SW 6 10.00 Partly Cloudy SCT060 81 73.9 79% 86 29.91 0.0
24 21:35 SW 8 10.00 Fair CLR 81.3 73.6 77% 87 29.91 0.0
24 21:15 SW 6 10.00 Fair CLR 81.9 73.8 77% 88 29.9 0.0
24 20:55 SW 7 10.00 Fair CLR 82.8 73.8 74% 89 29.89 0.0
24 20:35 SW 9 10.00 Fair CLR 83.3 73.8 73% 90 29.89 0.0
24 20:15 W 8 10.00 Fair CLR 84.2 74.5 73% 92 29.89 0.0
24 19:55 SW 9 10.00 Fair CLR 85.6 73.8 96.1 85.5 68% 93 29.89 0.0
24 19:35 W 13 10.00 Fair CLR 86.4 72.7 64% 93 29.89 0.0
24 19:15 W 12 10.00 Fair CLR 88.2 70.7 56% 94 29.9 0.0
24 18:55 SW 13 10.00 Partly Cloudy SCT065 87.6 73.9 64% 96 29.9 0.0
24 18:35 SW 13 10.00 Mostly Cloudy SCT048 BKN060 88.3 74.5 64% 98 29.9 0.0
24 18:15 W 8 10.00 Fair CLR 92.5 72.3 52% 101 29.89 0.0
24 17:55 NW 10 G 16 10.00 Fair CLR 93.7 72.7 50% 103 29.88 0.0
24 17:35 NW 9 10.00 Fair CLR 93.4 73.4 52% 103 29.88 0.0
24 17:15 N 13 10.00 Fair CLR 94.1 73.9 52% 105 29.88 0.0
24 16:55 NW 8 10.00 Fair CLR 94.3 73.9 52% 105 29.88 0.0
24 16:35 NW 9 10.00 Fair CLR 94.1 75 54% 106 29.89 0.0
24 16:15 NW 8 G 17 7.00 Fair with Haze CLR 94.6 74.1 52% 105 29.9 0.0
24 15:55 NE 9 10.00 Fair CLR 93.9 75.6 55% 106 29.91 0.0
24 15:35 N 10 10.00 Fair CLR 93 75.7 57% 105 29.91 0.0
24 15:15 N 9 10.00 Fair CLR 92.3 75 57% 104 29.92 0.0
24 14:55 N 10 10.00 Fair CLR 91.8 75 58% 103 29.93 0.0
24 14:35 N 12 10.00 Fair CLR 91 74.5 58% 101 29.93 0.0
24 14:15 N 13 10.00 Fair CLR 90.7 74.8 60% 101 29.94 0.0
24 13:55 N 13 10.00 Fair CLR 90.3 75.7 93.9 79.3 62% 102 29.95 0.0
24 13:35 N 13 10.00 Fair CLR 91.6 76.1 61% 104 29.96 0.0
24 13:15 N 17 G 22 10.00 Partly Cloudy SCT065 SCT080 92.5 76.6 60% 106 29.96 0.0
24 12:55 N 10 10.00 Partly Cloudy SCT065 SCT080 93 75.9 58% 106 29.97 0.0
24 12:35 N 8 10.00 Fair CLR 93.2 75.6 57% 105 29.97 0.0
24 12:15 W 3 10.00 Fair CLR 91.4 75.2 59% 103 29.97 0.0
24 11:55 W 6 10.00 Fair CLR 90.5 76.5 63% 103 29.97 0.0
24 11:35 NW 8 10.00 Fair CLR 90.9 75.6 61% 102 29.97 0.0
24 11:15 W 8 10.00 Fair CLR 89.6 75.7 64% 101 29.97 0.0
24 10:55 W 7 10.00 Fair CLR 88.5 76.3 67% 100 29.97 0.0
24 10:35 W 7 10.00 Fair CLR 88.3 76.6 68% 100 29.97 0.0
24 10:15 SW 6 10.00 Fair CLR 87.4 76.6 70% 99 29.97 0.0
24 09:55 W 8 10.00 Partly Cloudy SCT014 86.2 77 74% 97 29.97 0.0
24 09:35 W 8 10.00 Partly Cloudy SCT014 84.6 76.5 77% 94 29.97 0.0
24 09:15 W 8 10.00 Partly Cloudy SCT011 83.1 76.3 80% 92 29.96 0.0
24 08:55 W 10 10.00 Partly Cloudy SCT009 SCT013 82.4 76.5 82% 90 29.96 0.0
24 08:35 W 8 10.00 Partly Cloudy SCT009 81.5 76.3 84% 89 29.95 0.0
24 08:15 W 9 10.00 Partly Cloudy SCT009 80.2 76.1 87% 86 29.95 0.0
24 07:55 W 9 10.00 Partly Cloudy SCT006 79.3 75.9 79.3 77 89% 84 29.95 0.0
24 07:35 W 8 10.00 Partly Cloudy SCT006 78.1 75.7 93% 81 29.94 0.0
24 07:15 SW 7 10.00 Fair CLR 77.4 75.6 94% 79 29.94 0.0
24 06:55 SW 7 10.00 Fair CLR 77 75.2 94% 78 29.95 0.0
24 06:35 SW 7 10.00 Fair CLR 77 75.2 94% 78 29.94 0.0
24 06:15 SW 8 10.00 Fair CLR 77.2 75.2 94% 78 29.94 0.0
24 05:55 SW 8 10.00 Fair CLR 77.4 75.2 93% 79 29.94 0.0
24 05:35 SW 7 10.00 Fair CLR 77.4 75.2 93% 79 29.94 0.0
24 05:15 SW 9 10.00 Fair CLR 77.5 75.2 93% 79 29.94 0.0
24 04:55 SW 9 10.00 Fair CLR 77.5 75 92% 79 29.94 0.0
24 04:35 W 7 10.00 Fair CLR 77.7 75 91% 80 29.94 0.0
24 04:15 SW 7 10.00 Fair CLR 77.9 74.8 90% 80 29.94 0.0
24 03:55 W 7 10.00 Fair CLR 77.9 74.8 90% 80 29.94 0.0
24 03:35 SW 8 10.00 Fair CLR 78.1 74.7 89% 81 29.94 0.0
24 03:15 SW 8 10.00 Partly Cloudy SCT075 78.3 74.7 89% 81 29.94 0.0
24 02:55 SW 8 10.00 Partly Cloudy SCT075 78.4 74.5 88% 81 29.94 0.0
24 02:35 SW 8 10.00 Fair CLR 78.4 74.1 87% 81 29.94 0.0
24 02:15 SW 7 10.00 Fair CLR 78.8 73.9 85% 82 29.94 0.0
24 01:55 SW 7 10.00 Fair CLR 79 73.8 94.8 79 84% 82 29.94 0.0
24 01:35 W 8 10.00 Fair CLR 79.5 73.4 82% 83 29.94 0.0
24 01:15 SW 10 10.00 Fair CLR 80.1 73.4 80% 84 29.94 0.0
24 00:55 SW 9 10.00 Fair CLR 80.4 73.6 80% 85 29.94 0.0
24 00:35 SW 7 10.00 Fair CLR 80.8 73.4 78% 86 29.93 0.0
24 00:15 SW 9 10.00 Fair CLR 81.3 73.4 77% 87 29.93 0.0
23 23:55 SW 9 10.00 Fair CLR 82 73.8 76% 88 29.93 0.0
23 23:35 SW 9 10.00 Fair CLR 82.8 73.9 75% 89 29.93 0.0
23 23:15 SW 9 10.00 Fair CLR 83.3 73.9 73% 90 29.93 0.0
23 22:55 SW 10 10.00 Fair CLR 84 73.9 72% 91 29.92 0.0
23 22:35 SW 10 10.00 Fair CLR 84.6 74.1 71% 92 29.91 0.0
23 22:15 SW 12 10.00 Fair CLR 84.7 74.1 71% 92 29.91 0.0
23 21:55 SW 9 10.00 Fair CLR 84 74.1 72% 91 29.91 0.0
23 21:35 SW 9 10.00 Fair CLR 84.9 73.4 68% 92 29.91 0.0
23 20:35 S 10 10.00 Fair CLR 87.1 72.1 61% 94 29.9 0.0
23 19:55 W 3 10.00 Fair CLR 95 65.7 98.6 94.6 38% 98 29.88 0.0
23 19:35 W 5 10.00 Fair CLR 95.5 65.1 37% 98 29.88 0.0
23 19:15 NW 3 10.00 Fair CLR 96.1 65.8 37% 99 29.88 0.0
23 18:55 NW 7 10.00 Fair CLR 96.6 66.2 37% 100 29.88 0.0
23 18:35 NW 5 10.00 Fair CLR 96.4 66.4 37% 100 29.88 0.0
23 18:15 N 7 10.00 Fair CLR 97.2 66.7 37% 101 29.88 0.0
23 17:55 N 5 10.00 Fair CLR 96.4 67.3 39% 101 29.89 0.0
23 17:35 W 7 10.00 Fair CLR 97.3 66.9 37% 102 29.89 0.0
23 17:15 NW 8 10.00 Fair CLR 97.2 66.9 37% 101 29.89 0.0
23 16:55 W 6 10.00 Fair CLR 98.1 66.2 35% 102 29.9 0.0
23 16:35 NW 3 10.00 Fair CLR 97.3 65.8 36% 101 29.91 0.0
23 16:15 W 9 10.00 Fair CLR 98.1 66.7 36% 102 29.92 0.0
23 15:55 NW 5 10.00 Partly Cloudy SCT065 96.8 66.4 37% 101 29.93 0.0
23 15:35 W 12 10.00 Partly Cloudy SCT065 96.8 65.8 36% 100 29.94 0.0
23 15:15 W 8 10.00 Fair CLR 96.6 65.8 36% 100 29.95 0.0
23 14:55 W 6 10.00 Fair CLR 96.8 66 36% 100 29.96 0.0
23 14:35 NW 6 10.00 Fair CLR 96.1 67.6 39% 101 29.96 0.0
23 14:15 NW 5 10.00 Fair CLR 97 68.5 40% 103 29.97 0.0
23 13:55 NW 7 10.00 Fair CLR 95.9 67.1 96.6 77.9 39% 100 29.98 0.0
23 13:35 W 7 10.00 Fair CLR 95.4 66.7 39% 99 29.99 0.0
23 13:15 W 10 10.00 Fair CLR 94.5 67.3 41% 99 29.99 0.0
23 12:55 W 6 10.00 Fair CLR 93.4 70 47% 99 29.99 0.0
23 12:35 NW 5 10.00 Fair CLR 92.3 70.3 49% 98 30 0.0
23 12:15 NW 6 10.00 Fair CLR 91.8 71.2 51% 99 30.01 0.0
23 11:55 NW 3 10.00 Fair CLR 90.3 70 51% 96 30.01 0.0
23 11:35 W 6 10.00 Fair CLR 90.7 71.2 53% 97 30.01 0.0
23 11:15 SW 5 10.00 Fair CLR 88.5 71.8 58% 95 30.01 0.0
23 10:55 S 5 10.00 Fair CLR 87.4 71.8 60% 94 30.01 0.0
23 10:35 S 6 10.00 Fair CLR 87.8 71.6 59% 94 30.01 0.0
23 10:15 W 5 10.00 Fair CLR 85.1 71.1 63% 90 30.01 0.0
23 09:55 SW 5 10.00 Partly Cloudy SCT080 84.7 71.4 64% 90 30.01 0.0
23 09:35 W 7 10.00 Mostly Cloudy BKN080 84.2 71.1 65% 89 30.01 0.0
23 09:15 W 6 10.00 Partly Cloudy SCT080 83.1 71.2 67% 88 30 0.0
23 08:55 NW 7 10.00 Fair CLR 81.7 71.1 70% 86 30 0.0
23 08:35 W 8 10.00 Fair CLR 80.4 71.4 74% 84 30 0.0
23 08:15 W 6 10.00 Fair CLR 79 72.9 82% 82 30 0.0
23 07:55 SW 7 10.00 Fair CLR 77.7 72.1 79 73.6 83% 80 30 0.0
23 07:35 W 5 10.00 Fair CLR 76.3 72.7 89% 77 29.99 0.0
23 07:15 SW 5 10.00 Fair CLR 74.7 72.5 93% 29.99 0.0
23 06:55 W 3 10.00 Fair CLR 74.3 72.1 93% 29.99 0.0
23 06:35 SW 3 10.00 Fair CLR 73.9 71.8 93% 29.99 0.0
23 06:15 SW 6 10.00 Fair CLR 73.9 72.1 94% 29.99 0.0
23 05:55 SW 3 10.00 Fair CLR 74.1 71.8 92% 29.98 0.0
23 05:35 SW 3 10.00 Fair CLR 74.5 72 92% 29.98 0.0
23 05:15 SW 3 10.00 Fair CLR 74.5 72 92% 29.98 0.0
23 04:55 S 3 10.00 Fair CLR 74.5 71.6 91% 29.97 0.0
23 04:35 Calm 10.00 Fair CLR 75.9 72.1 88% 76 29.97 0.0
23 04:15 SW 5 10.00 Fair CLR 76.1 72.1 88% 76 29.98 0.0
23 03:55 W 6 10.00 Fair CLR 75.9 72.1 88% 76 29.97 0.0
23 03:35 W 6 10.00 Fair CLR 76.6 72.5 87% 78 29.98 0.0
23 03:15 W 6 10.00 Fair CLR 76.8 72.7 87% 78 29.99 0.0
23 02:55 W 7 10.00 Fair CLR 77.2 72.9 87% 79 29.99 0.0
23 02:35 W 6 10.00 Fair CLR 78.1 72.7 84% 81 30 0.0
23 02:15 W 5 10.00 Fair CLR 78.6 72.7 82% 82 30 0.0
23 01:55 SW 8 10.00 Fair CLR 79 72.5 93.2 79 81% 82 30 0.0
23 01:35 W 7 10.00 Fair CLR 79.7 72.5 79% 83 30 0.0
23 01:15 W 8 10.00 Fair CLR 80.2 72.7 78% 84 30.01 0.0
23 00:55 W 10 10.00 Fair CLR 80.6 73 78% 85 30.01 0.0
23 00:35 SW 8 10.00 Fair CLR 81 73.4 78% 86 30.01 0.0
23 00:15 SW 8 10.00 Fair CLR 81.3 73.8 78% 87 30.02 0.0
22 23:55 SW 8 10.00 Fair CLR 81.9 73.9 77% 88 30.02 0.0
22 23:35 SW 10 10.00 Fair CLR 82.4 74.1 76% 89 30.02 0.0
22 23:15 SW 10 10.00 Fair CLR 82.8 74.3 76% 89 30.01 0.0
22 22:55 SW 12 10.00 Fair CLR 82.6 73.8 75% 89 30.01 0.0
22 22:35 SW 10 10.00 Fair CLR 82.4 71.6 70% 87 30.01 0.0
22 22:15 Calm 10.00 Fair CLR 80.8 69.8 69% 84 29.99 0.0
22 21:55 S 3 10.00 Fair CLR 84.2 69.4 61% 88 29.99 0.0
22 21:35 Calm 10.00 Fair CLR 84 69.6 62% 88 29.98 0.0
22 21:15 S 3 10.00 Fair CLR 86.5 67.5 53% 90 29.98 0.0
22 20:55 Calm 10.00 Fair CLR 88.9 68.9 52% 93 29.98 0.0
22 20:35 S 3 10.00 Fair CLR 89.8 67.8 48% 94 29.98 0.0
22 20:15 S 5 10.00 Fair CLR 91 68.7 48% 96 29.98 0.0
22 19:55 Calm 10.00 Fair CLR 93.4 67.3 97.2 91.4 42% 97 29.97 0.0
22 19:35 SW 5 10.00 Fair CLR 93.9 67.3 42% 98 29.97 0.0
22 19:15 W 6 10.00 Fair CLR 93.9 68 43% 98 29.96 0.0
22 18:55 N 5 10.00 Fair CLR 95 67.8 41% 100 29.96 0.0
22 18:35 NW 3 10.00 Fair CLR 94.5 67.6 42% 99 29.96 0.0
22 18:15 NE 6 10.00 Fair CLR 95.2 67.5 40% 100 29.96 0.0
22 17:55 N 8 10.00 Fair CLR 95.7 67.1 39% 100 29.96 0.0
22 17:35 NW 7 10.00 Fair CLR 96.1 67.1 39% 100 29.97 0.0
22 17:15 NW 9 10.00 Partly Cloudy SCT065 95.9 67.1 39% 100 29.97 0.0
22 16:55 NE 3 10.00 Fair CLR 96.6 67.6 39% 101 29.98 0.0
22 16:35 NW 7 10.00 Fair CLR 95.4 66.7 39% 99 29.99 0.0
22 16:15 N 7 10.00 Partly Cloudy SCT060 95.5 68 41% 100 29.99 0.0
22 15:55 N 9 G 17 10.00 Partly Cloudy SCT060 96.8 66.6 37% 101 30 0.0
22 15:35 NW 8 10.00 Partly Cloudy SCT050 95.4 67.1 40% 99 30 0.0
22 15:15 NW 7 10.00 Mostly Cloudy BKN050 95 69.3 43% 101 30.01 0.0
22 14:55 W 6 10.00 Partly Cloudy SCT050 94.3 70.3 46% 101 30.02 0.0
22 14:35 N 8 10.00 Partly Cloudy SCT050 93.2 70.7 48% 100 30.03 0.0
22 14:15 N 8 10.00 Partly Cloudy SCT048 93.4 70.9 48% 100 30.04 0.0
22 13:55 NE 7 10.00 Fair CLR 93.2 70.7 94.1 74.7 48% 100 30.05 0.0
Date Time (edt) Wind (mph) Vis. (mi.) Weather Sky Cond. Air Dwpt Max. Min. Relative Humidity Wind Chill (°F) Heat Index (°F) altimeter (in) sea level (mb) 1 hr 3 hr 6 hr
6 hour
Temperature (ºF) Pressure Precipitation (in)